Location: Malvern Link
(52.1333°N, 2.3000°W)
Time: 05:41:47
(UTC+00:00)

SPROUT - Pass Details

Date: 04 July 2022
Orbit: 588 x 598 km, 97.9° (Epoch: 18 August)

Event Time Altitude Azimuth Distance (km) Brightness Sun altitude
Exits shadow 00:47:58 23° 167° (SSE) 1,261 ? -14.6°
Maximum altitude 00:50:30 86° 253° (WSW) 599 ? -14.5°
Drops below altitude 10° 00:54:42 10° 345° (NNW) 1,932 ? -14.4°
Sets 00:56:53 0° 346° (NNW) 2,840 ? -14.4°
